Simultaneous Nadir Overpasses (SNOs) Predictions

Prediction of SNOs between NOAA-21 and METOP-C Satellite Orbit:

Table of predicted SNOs for the next 14.0 days since TLE Epoch: 9/7/2024
Index Date (NOAA-21) Time (NOAA-21) Lat,Lon (NOAA-21) SZA (NOAA-21 ) Date (METOP-C) Time (METOP-C) Lat,Lon (METOP-C) SZA (METOP-C ) Distance(km) Time Diff (sec)
1 09/14/2024 06:33:25 73.35, 72.24 70.24 09/14/2024 06:34:32 73.32, 74.71 70.12 78.76 67
2 09/14/2024 07:24:07 -73.25,-120.22 109.86 09/14/2024 07:25:16 -73.19,-118.26 109.99 63.47 69
3 09/14/2024 08:14:49 73.06, 47.50 69.96 09/14/2024 08:16:00 73.00, 48.67 69.85 38.17 71
4 09/14/2024 09:05:31 -72.96,-144.97 110.14 09/14/2024 09:06:43 -72.92,-144.18 110.22 26.07 72
5 09/14/2024 09:56:13 72.77, 22.75 69.67 09/14/2024 09:57:27 72.73, 22.75 69.62 3.69 74
6 09/14/2024 10:46:57 -72.77,-169.94 110.32 09/14/2024 10:48:08 -72.76,-169.87 110.35 2.71 71
7 09/14/2024 11:37:42 72.73, -2.54 69.65 09/14/2024 11:38:49 72.72, -2.62 69.63 2.96 67
8 09/14/2024 12:28:26 -72.73, 164.77 110.33 09/14/2024 12:29:30 -72.74, 164.75 110.34 0.98 64
9 09/14/2024 13:19:12 72.74, -27.94 69.69 09/14/2024 13:20:10 72.75, -27.89 69.69 1.86 58
10 09/14/2024 14:09:56 -72.74, 139.37 110.29 09/14/2024 14:10:52 -72.72, 139.38 110.33 2.43 56
11 09/14/2024 15:00:42 72.75, -53.34 69.73 09/14/2024 15:01:32 72.73, -53.27 69.70 3.13 50
12 09/14/2024 15:51:25 -72.70, 114.08 110.31 09/14/2024 15:52:14 -72.70, 114.00 110.31 2.59 49
13 09/14/2024 16:42:11 72.71, -78.63 69.72 09/14/2024 16:42:54 72.71, -78.65 69.71 0.57 43
14 09/14/2024 17:32:55 -72.72, 88.68 110.27 09/14/2024 17:33:35 -72.74, 88.73 110.26 2.80 40
15 09/14/2024 18:23:41 72.72,-104.03 69.76 09/14/2024 18:24:16 72.70,-104.02 69.72 3.13 35
16 09/14/2024 19:14:25 -72.73, 63.28 110.23 09/14/2024 19:14:57 -72.72, 63.35 110.25 2.47 32
17 09/14/2024 20:05:10 72.68,-129.32 69.74 09/14/2024 20:05:38 72.68,-129.40 69.73 2.73 28
18 09/14/2024 20:55:54 -72.69, 37.99 110.25 09/14/2024 20:56:19 -72.70, 37.98 110.24 1.50 25
19 09/14/2024 21:46:40 72.70,-154.72 69.78 09/14/2024 21:46:59 72.71,-154.67 69.79 2.23 19
20 09/14/2024 22:37:24 -72.70, 12.59 110.21 09/14/2024 22:37:41 -72.68, 12.60 110.23 1.86 17
21 09/14/2024 23:28:10 72.71, 179.88 69.82 09/14/2024 23:28:21 72.69, 179.95 69.80 2.82 11
22 09/15/2024 00:18:53 -72.66, -12.70 110.22 09/15/2024 00:19:03 -72.67, -12.78 110.22 2.56 10
23 09/15/2024 01:09:39 72.67, 154.59 69.81 09/15/2024 01:09:43 72.67, 154.57 69.81 0.83 4
24 09/15/2024 02:00:23 -72.67, -38.10 110.18 09/15/2024 02:00:24 -72.70, -38.05 110.16 3.30 1
25 09/15/2024 02:51:09 72.68, 129.19 69.85 09/15/2024 02:51:05 72.66, 129.20 69.82 2.66 4
26 09/15/2024 03:41:53 -72.68, -63.50 110.14 09/15/2024 03:41:46 -72.68, -63.43 110.15 2.40 7
27 09/15/2024 04:32:38 72.64, 103.90 69.83 09/15/2024 04:32:27 72.64, 103.82 69.83 2.59 11
28 09/15/2024 05:23:22 -72.65, -88.79 110.16 09/15/2024 05:23:08 -72.66, -88.80 110.14 1.95 14
29 09/15/2024 06:14:08 72.65, 78.50 69.87 09/15/2024 06:13:48 72.67, 78.55 69.89 2.58 20
30 09/15/2024 07:04:52 -72.66,-114.19 110.12 09/15/2024 07:04:30 -72.64,-114.18 110.13 1.41 22
31 09/15/2024 07:55:38 72.67, 53.10 69.91 09/15/2024 07:55:10 72.65, 53.17 69.90 2.64 28
32 09/15/2024 08:46:21 -72.62,-139.48 110.13 09/15/2024 08:45:52 -72.63,-139.56 110.12 2.59 29
33 09/15/2024 09:37:07 72.63, 27.81 69.90 09/15/2024 09:36:32 72.64, 27.80 69.91 1.13 35
34 09/15/2024 10:27:51 -72.63,-164.88 110.09 09/15/2024 10:27:14 -72.61,-164.93 110.11 2.89 37
35 09/15/2024 11:18:37 72.64, 2.41 69.93 09/15/2024 11:17:54 72.62, 2.42 69.92 2.31 43
36 09/15/2024 12:09:21 -72.64, 169.72 110.05 09/15/2024 12:08:35 -72.64, 169.79 110.05 2.46 46
37 09/15/2024 13:00:06 72.60, -22.88 69.92 09/15/2024 12:59:16 72.60, -22.96 69.93 2.49 50
38 09/15/2024 13:50:50 -72.60, 144.43 110.07 09/15/2024 13:49:57 -72.62, 144.42 110.04 2.32 53
39 09/15/2024 14:41:36 72.61, -48.28 69.96 09/15/2024 14:40:37 72.63, -48.23 69.99 2.88 59
40 09/15/2024 15:32:20 -72.62, 119.03 110.03 09/15/2024 15:31:19 -72.61, 119.04 110.03 1.10 61
41 09/15/2024 16:23:06 72.62, -73.68 70.00 09/15/2024 16:21:59 72.61, -73.61 70.00 2.58 67
42 09/15/2024 17:13:49 -72.58, 93.73 110.04 09/15/2024 17:12:41 -72.59, 93.67 110.02 2.63 68
43 09/15/2024 18:04:35 72.58, -98.97 69.98 09/15/2024 18:03:21 72.60, -98.98 70.01 1.37 74
44 09/15/2024 18:55:18 -72.54, 68.44 110.06 09/15/2024 18:54:04 -72.52, 68.19 110.05 8.68 74
45 09/15/2024 19:46:00 72.34,-123.86 69.75 09/15/2024 19:44:48 72.32,-124.87 69.78 34.24 72
46 09/15/2024 20:36:42 -72.24, 43.65 110.34 09/15/2024 20:35:31 -72.25, 42.31 110.28 45.55 71
47 09/15/2024 21:27:24 72.05,-148.66 69.47 09/15/2024 21:26:15 72.05,-150.74 69.56 71.45 69
48 09/15/2024 22:18:06 -71.95, 18.84 110.63 09/15/2024 22:16:58 -71.97, 16.44 110.50 82.70 68



Historial Predications of SNOs between NOAA-21 and METOP-C
